This demonstration page uses our WeatherBlox Daily Observations layout. Learn more.

36.17497, -115.13722

Hourly Observations for September 25, 2019

Temp ( °F °C ) Dew Point ( °F °C ) Humidity (%) Winds ( mph kmh ) Pressure ( in mb ) Visibility ( mi km ) Precip ( " mm )
12:53 am 00:53 Clear 74 23.3 36 2.2 25 25 NNW 5 7 29.85 1011 10 16.09344 0 0
1:53 am 01:53 Clear 74 23.3 35 1.7 24 24 WSW 3 6 29.83 1010 10 16.09344 0 0
2:53 am 02:53 Clear 75 23.9 35 1.7 23 23 S 5 7 29.83 1010 10 16.09344 0 0
3:53 am 03:53 Clear 73 22.8 35 1.7 25 25 Calm 29.83 1010 10 16.09344 0 0
4:53 am 04:53 Clear 72 22.2 35 1.7 26 26 N 5 7 29.85 1011 10 16.09344 0 0
5:53 am 05:53 Clear 70 21.1 36 2.2 29 29 W 3 6 29.85 1011 10 16.09344 0 0
6:53 am 06:53 Sunny 70 21.1 35 1.7 28 28 Calm 29.88 1012 10 16.09344 0 0
7:53 am 07:53 Sunny 73 22.8 35 1.7 25 25 Calm 29.88 1012 10 16.09344 0 0
8:53 am 08:53 Sunny 79 26.1 37 2.8 22 22 NW 3 6 29.91 1013 10 16.09344 0 0
9:53 am 09:53 Sunny 80 26.7 37 2.8 21 21 SSE 5 7 29.91 1013 10 16.09344 0 0
10:53 am 10:53 Sunny 85 29.4 38 3.3 19 19 S 3 6 29.88 1012 10 16.09344 0 0
11:53 am 11:53 Sunny 87 30.6 39 3.9 18 18 SE 5 7 29.88 1012 10 16.09344 0 0
12:53 pm 12:53 Sunny 88 31.1 40 4.4 18 18 Calm 29.85 1011 10 16.09344 0 0
1:53 pm 13:53 Sunny 89 31.7 39 3.9 17 17 Calm 29.83 1010 10 16.09344 0 0
2:53 pm 14:53 Sunny 91 32.8 38 3.3 15 15 SSE 9 15 29.8 1009 10 16.09344 0 0
3:53 pm 15:53 Sunny 93 33.9 37 2.8 14 14 Calm 29.8 1009 10 16.09344 0 0
4:53 pm 16:53 Sunny 92 33.3 35 1.7 13 13 VRB 3 6 29.77 1008 10 16.09344 0 0
5:53 pm 17:53 Sunny 92 33.3 35 1.7 13 13 Calm 29.77 1008 10 16.09344 0 0
6:53 pm 18:53 Clear 91 32.8 35 1.7 14 14 SSW 3 6 29.77 1008 10 16.09344 0 0
7:53 pm 19:53 Clear 90 32.2 37 2.8 15 15 Calm 29.8 1009 10 16.09344 0 0
8:53 pm 20:53 Clear 83 28.3 38 3.3 20 20 E 7 11 29.8 1009 10 16.09344 0 0
9:53 pm 21:53 Clear 82 27.8 48 8.9 31 31 S 9 15 29.83 1010 10 16.09344 0 0
10:53 pm 22:53 Clear 82 27.8 50 10 33 33 S 7 11 29.85 1011 10 16.09344 0 0
11:53 pm 23:53 Clear 81 27.2 50 10 34 34 Calm 29.85 1011 10 16.09344 0 0

Powered by AerisWeather